Time,TemperatureF,DewpointF,PressureIn,WindDirection,WindDirectionDegrees,WindSpeedMPH,WindSpeedGustMPH,Humidity,HourlyPrecipIn,Conditions,Clouds,dailyrainin,SoftwareType,DateUTC
2013-09-06 00:01:00,52.8,47.8,30.19,NE,35,0.0,0.0,83,0.00,,---,0.00,VWS V13.01,2013-09-06 04:01:00,
2013-09-06 00:02:00,52.8,47.8,30.18,NE,35,0.0,0.0,83,0.00,,---,0.00,VWS V13.01,2013-09-06 04:02:00,
2013-09-06 00:07:00,52.5,47.8,30.18,NE,35,0.0,0.0,84,0.00,,---,0.00,VWS V13.01,2013-09-06 04:07:00,
2013-09-06 00:12:00,52.2,47.5,30.19,NE,35,0.0,0.0,84,0.00,,---,0.00,VWS V13.01,2013-09-06 04:12:00,
2013-09-06 00:17:00,51.9,47.2,30.19,NE,35,0.0,0.0,84,0.00,,---,0.00,VWS V13.01,2013-09-06 04:17:00,
2013-09-06 00:22:00,51.6,46.9,30.19,NE,35,0.0,0.0,84,0.00,,---,0.00,VWS V13.01,2013-09-06 04:22:00,
2013-09-06 00:27:00,51.3,47.0,30.19,NE,35,0.0,0.0,85,0.00,,---,0.00,VWS V13.01,2013-09-06 04:27:00,
2013-09-06 00:32:00,51.0,47.0,30.19,NE,35,0.0,0.0,86,0.00,,---,0.00,VWS V13.01,2013-09-06 04:32:00,
2013-09-06 00:37:00,50.8,47.1,30.19,NE,35,0.0,0.0,87,0.00,,---,0.00,VWS V13.01,2013-09-06 04:37:00,
2013-09-06 00:42:00,50.6,47.2,30.19,NE,35,0.0,0.0,88,0.00,,---,0.00,VWS V13.01,2013-09-06 04:42:00,
2013-09-06 00:47:00,50.5,47.1,30.19,NE,35,0.0,0.0,88,0.00,,---,0.00,VWS V13.01,2013-09-06 04:47:00,
2013-09-06 00:52:00,50.4,47.3,30.20,NE,35,0.0,1.0,89,0.00,,---,0.00,VWS V13.01,2013-09-06 04:52:00,
2013-09-06 00:57:00,50.3,47.2,30.20,NE,35,0.0,1.0,89,0.00,,---,0.00,VWS V13.01,2013-09-06 04:57:00,
2013-09-06 01:02:00,50.2,47.1,30.20,NE,35,0.0,0.0,89,0.00,,---,0.00,VWS V13.01,2013-09-06 05:02:00,
2013-09-06 01:07:00,50.1,47.0,30.20,NE,35,0.0,0.0,89,0.00,,---,0.00,VWS V13.01,2013-09-06 05:07:00,
2013-09-06 01:12:00,49.9,46.8,30.20,NE,35,0.0,0.0,89,0.00,,---,0.00,VWS V13.01,2013-09-06 05:12:00,
2013-09-06 01:17:00,49.7,46.6,30.20,NE,35,0.0,0.0,89,0.00,,---,0.00,VWS V13.01,2013-09-06 05:17:00,
2013-09-06 01:22:00,49.5,46.7,30.20,NE,35,0.0,0.0,90,0.00,,---,0.00,VWS V13.01,2013-09-06 05:22:00,
2013-09-06 01:27:00,49.4,46.6,30.20,NE,35,0.0,0.0,90,0.00,,---,0.00,VWS V13.01,2013-09-06 05:27:00,
2013-09-06 01:32:00,49.4,46.6,30.21,NE,35,0.0,0.0,90,0.00,,---,0.00,VWS V13.01,2013-09-06 05:32:00,
2013-09-06 01:37:00,49.3,46.5,30.21,NE,35,0.0,0.0,90,0.00,,---,0.00,VWS V13.01,2013-09-06 05:37:00,
2013-09-06 01:42:00,49.2,46.4,30.21,NE,35,0.0,0.0,90,0.00,,---,0.00,VWS V13.01,2013-09-06 05:42:00,
2013-09-06 01:47:00,49.0,46.2,30.21,NE,35,0.0,0.0,90,0.00,,---,0.00,VWS V13.01,2013-09-06 05:47:00,
2013-09-06 01:52:00,48.9,46.1,30.21,NE,35,0.0,0.0,90,0.00,,---,0.00,VWS V13.01,2013-09-06 05:52:00,
2013-09-06 01:57:00,48.7,45.9,30.21,NE,35,0.0,0.0,90,0.00,,---,0.00,VWS V13.01,2013-09-06 05:57:00,
2013-09-06 02:02:00,48.5,46.0,30.21,NE,35,0.0,0.0,91,0.00,,---,0.00,VWS V13.01,2013-09-06 06:02:00,
2013-09-06 02:07:00,48.4,45.9,30.21,NE,35,0.0,0.0,91,0.00,,---,0.00,VWS V13.01,2013-09-06 06:07:00,
2013-09-06 02:12:00,48.3,45.8,30.21,NE,35,0.0,0.0,91,0.00,,---,0.00,VWS V13.01,2013-09-06 06:12:00,
2013-09-06 02:17:00,48.1,45.6,30.21,NE,35,0.0,0.0,91,0.00,,---,0.00,VWS V13.01,2013-09-06 06:17:00,
2013-09-06 02:22:00,48.0,45.5,30.21,NE,35,0.0,0.0,91,0.00,,---,0.00,VWS V13.01,2013-09-06 06:22:00,
2013-09-06 02:27:00,47.9,45.4,30.21,NE,35,0.0,0.0,91,0.00,,---,0.00,VWS V13.01,2013-09-06 06:27:00,
2013-09-06 02:32:00,47.8,45.3,30.21,NE,35,0.0,0.0,91,0.00,,---,0.00,VWS V13.01,2013-09-06 06:32:00,
2013-09-06 02:37:00,47.7,45.5,30.21,NE,35,0.0,0.0,92,0.00,,---,0.00,VWS V13.01,2013-09-06 06:37:00,
2013-09-06 02:42:00,47.6,45.4,30.22,NE,35,0.0,0.0,92,0.00,,---,0.00,VWS V13.01,2013-09-06 06:42:00,
2013-09-06 02:47:00,47.4,45.2,30.21,NE,35,0.0,0.0,92,0.00,,---,0.00,VWS V13.01,2013-09-06 06:47:00,
2013-09-06 02:52:00,47.3,45.1,30.21,NE,35,0.0,0.0,92,0.00,,---,0.00,VWS V13.01,2013-09-06 06:52:00,
2013-09-06 02:57:00,47.3,45.1,30.22,NE,35,0.0,0.0,92,0.00,,---,0.00,VWS V13.01,2013-09-06 06:57:00,
2013-09-06 03:02:00,47.2,45.3,30.21,NE,35,0.0,0.0,93,0.00,,---,0.00,VWS V13.01,2013-09-06 07:02:00,
2013-09-06 03:07:00,47.0,44.8,30.21,NE,35,0.0,0.0,92,0.00,,---,0.00,VWS V13.01,2013-09-06 07:07:00,
2013-09-06 03:12:00,46.9,44.7,30.21,NE,35,0.0,0.0,92,0.00,,---,0.00,VWS V13.01,2013-09-06 07:12:00,
2013-09-06 03:17:00,46.8,44.9,30.21,NE,35,0.0,2.0,93,0.00,,---,0.00,VWS V13.01,2013-09-06 07:17:00,
2013-09-06 03:22:00,46.7,44.8,30.21,NE,35,0.0,3.0,93,0.00,,---,0.00,VWS V13.01,2013-09-06 07:22:00,
2013-09-06 03:27:00,46.6,44.7,30.21,NE,35,0.0,3.0,93,0.00,,---,0.00,VWS V13.01,2013-09-06 07:27:00,
2013-09-06 03:32:00,46.5,44.6,30.21,NE,35,1.0,2.0,93,0.00,,---,0.00,VWS V13.01,2013-09-06 07:32:00,
2013-09-06 03:37:00,46.5,44.6,30.21,NE,35,1.0,2.0,93,0.00,,---,0.00,VWS V13.01,2013-09-06 07:37:00,
2013-09-06 03:42:00,46.5,44.6,30.21,NE,35,0.0,1.0,93,0.00,,---,0.00,VWS V13.01,2013-09-06 07:42:00,
2013-09-06 03:47:00,46.4,44.5,30.21,NE,35,0.0,1.0,93,0.00,,---,0.00,VWS V13.01,2013-09-06 07:47:00,
2013-09-06 03:52:00,46.2,44.3,30.21,NE,35,1.0,2.0,93,0.00,,---,0.00,VWS V13.01,2013-09-06 07:52:00,
2013-09-06 03:57:00,46.1,44.2,30.21,NE,37,0.0,2.0,93,0.00,,---,0.00,VWS V13.01,2013-09-06 07:57:00,
2013-09-06 04:02:00,46.0,44.1,30.21,NE,37,0.0,0.0,93,0.00,,---,0.00,VWS V13.01,2013-09-06 08:02:00,
2013-09-06 04:07:00,45.9,44.0,30.21,NE,37,0.0,1.0,93,0.00,,---,0.00,VWS V13.01,2013-09-06 08:07:00,
2013-09-06 04:12:00,45.8,43.9,30.21,NE,37,0.0,1.0,93,0.00,,---,0.00,VWS V13.01,2013-09-06 08:12:00,
2013-09-06 04:17:00,45.6,43.7,30.21,NE,37,0.0,2.0,93,0.00,,---,0.00,VWS V13.01,2013-09-06 08:17:00,
2013-09-06 04:22:00,45.5,43.6,30.21,NE,37,0.0,1.0,93,0.00,,---,0.00,VWS V13.01,2013-09-06 08:22:00,
2013-09-06 04:27:00,45.4,43.5,30.22,NE,37,0.0,1.0,93,0.00,,---,0.00,VWS V13.01,2013-09-06 08:27:00,
2013-09-06 04:32:00,45.3,43.4,30.22,NE,37,0.0,1.0,93,0.00,,---,0.00,VWS V13.01,2013-09-06 08:32:00,
2013-09-06 04:37:00,45.2,43.6,30.22,NE,37,0.0,1.0,94,0.00,,---,0.00,VWS V13.01,2013-09-06 08:37:00,
2013-09-06 04:42:00,45.2,43.6,30.22,NE,37,0.0,0.0,94,0.00,,---,0.00,VWS V13.01,2013-09-06 08:42:00,
2013-09-06 04:47:00,45.1,43.2,30.22,NE,37,0.0,1.0,93,0.00,,---,0.00,VWS V13.01,2013-09-06 08:47:00,
2013-09-06 04:52:00,45.0,43.4,30.22,NE,37,0.0,1.0,94,0.00,,---,0.00,VWS V13.01,2013-09-06 08:52:00,
2013-09-06 04:57:00,44.9,43.3,30.22,NE,37,0.0,1.0,94,0.00,,---,0.00,VWS V13.01,2013-09-06 08:57:00,
2013-09-06 05:02:00,44.8,42.9,30.23,NE,37,0.0,0.0,93,0.00,,---,0.00,VWS V13.01,2013-09-06 09:02:00,
2013-09-06 05:07:00,44.7,43.1,30.22,NE,37,0.0,0.0,94,0.00,,---,0.00,VWS V13.01,2013-09-06 09:07:00,
2013-09-06 05:12:00,44.6,43.0,30.23,NE,37,0.0,0.0,94,0.00,,---,0.00,VWS V13.01,2013-09-06 09:12:00,
2013-09-06 05:17:00,44.5,42.6,30.23,NE,37,0.0,0.0,93,0.00,,---,0.00,VWS V13.01,2013-09-06 09:17:00,
2013-09-06 05:22:00,44.3,42.4,30.23,NE,37,0.0,0.0,93,0.00,,---,0.00,VWS V13.01,2013-09-06 09:22:00,
2013-09-06 05:27:00,44.2,42.3,30.23,NE,37,0.0,0.0,93,0.00,,---,0.00,VWS V13.01,2013-09-06 09:27:00,
2013-09-06 05:32:00,44.2,42.6,30.23,NE,37,0.0,0.0,94,0.00,,---,0.00,VWS V13.01,2013-09-06 09:32:00,
2013-09-06 05:37:00,44.0,42.4,30.23,NE,37,0.0,0.0,94,0.00,,---,0.00,VWS V13.01,2013-09-06 09:37:00,
2013-09-06 05:42:00,44.0,42.4,30.23,NE,37,0.0,0.0,94,0.00,,---,0.00,VWS V13.01,2013-09-06 09:42:00,
2013-09-06 05:47:00,43.8,42.2,30.23,NE,37,0.0,0.0,94,0.00,,---,0.00,VWS V13.01,2013-09-06 09:47:00,
2013-09-06 05:52:00,43.8,42.2,30.23,NE,37,0.0,0.0,94,0.00,,---,0.00,VWS V13.01,2013-09-06 09:52:00,
2013-09-06 05:57:00,43.7,42.1,30.24,NE,37,0.0,1.0,94,0.00,,---,0.00,VWS V13.01,2013-09-06 09:57:00,
2013-09-06 06:02:00,43.7,42.1,30.24,NE,37,0.0,0.0,94,0.00,,---,0.00,VWS V13.01,2013-09-06 10:02:00,
2013-09-06 06:07:00,43.7,42.1,30.23,NE,37,0.0,0.0,94,0.00,,---,0.00,VWS V13.01,2013-09-06 10:07:00,
2013-09-06 06:12:00,43.7,42.1,30.24,NE,37,0.0,1.0,94,0.00,,---,0.00,VWS V13.01,2013-09-06 10:12:00,
2013-09-06 06:17:00,43.6,42.0,30.24,NE,37,0.0,1.0,94,0.00,,---,0.00,VWS V13.01,2013-09-06 10:17:00,
2013-09-06 06:22:00,43.6,42.0,30.24,NE,37,0.0,2.0,94,0.00,,---,0.00,VWS V13.01,2013-09-06 10:22:00,
2013-09-06 06:27:00,43.6,42.0,30.24,NE,37,1.0,2.0,94,0.00,,---,0.00,VWS V13.01,2013-09-06 10:27:00,
2013-09-06 06:32:00,43.7,42.4,30.24,NE,37,0.0,3.0,95,0.00,,---,0.00,VWS V13.01,2013-09-06 10:32:00,
2013-09-06 06:37:00,43.8,42.5,30.24,NE,37,0.0,3.0,95,0.00,,---,0.00,VWS V13.01,2013-09-06 10:37:00,
2013-09-06 06:42:00,43.8,42.5,30.24,NE,37,0.0,0.0,95,0.00,,---,0.00,VWS V13.01,2013-09-06 10:42:00,
2013-09-06 06:47:00,43.6,42.0,30.24,NE,37,0.0,0.0,94,0.00,,---,0.00,VWS V13.01,2013-09-06 10:47:00,
2013-09-06 06:52:00,43.5,41.9,30.24,NE,37,0.0,0.0,94,0.00,,---,0.00,VWS V13.01,2013-09-06 10:52:00,
2013-09-06 06:57:00,43.4,41.8,30.24,NE,37,0.0,2.0,94,0.00,,---,0.00,VWS V13.01,2013-09-06 10:57:00,
2013-09-06 07:02:00,43.4,41.8,30.24,NE,37,0.0,1.0,94,0.00,,---,0.00,VWS V13.01,2013-09-06 11:02:00,
2013-09-06 07:07:00,43.3,41.7,30.25,NE,37,0.0,2.0,94,0.00,,---,0.00,VWS V13.01,2013-09-06 11:07:00,
2013-09-06 07:12:00,43.4,41.8,30.25,NE,37,0.0,1.0,94,0.00,,---,0.00,VWS V13.01,2013-09-06 11:12:00,
2013-09-06 07:17:00,43.5,42.2,30.25,NE,37,0.0,1.0,95,0.00,,---,0.00,VWS V13.01,2013-09-06 11:17:00,
2013-09-06 07:22:00,43.9,42.6,30.25,NE,37,0.0,2.0,95,0.00,,---,0.00,VWS V13.01,2013-09-06 11:22:00,
2013-09-06 07:27:00,44.3,43.0,30.25,NE,37,0.0,2.0,95,0.00,,---,0.00,VWS V13.01,2013-09-06 11:27:00,
2013-09-06 07:32:00,44.7,43.4,30.25,NE,37,0.0,1.0,95,0.00,,---,0.00,VWS V13.01,2013-09-06 11:32:00,
2013-09-06 07:37:00,45.1,43.8,30.25,NE,37,0.0,1.0,95,0.00,,---,0.00,VWS V13.01,2013-09-06 11:37:00,
2013-09-06 07:42:00,45.9,44.5,30.25,NE,37,0.0,1.0,95,0.00,,---,0.00,VWS V13.01,2013-09-06 11:42:00,
2013-09-06 07:47:00,46.6,45.2,30.25,NE,37,0.0,2.0,95,0.00,,---,0.00,VWS V13.01,2013-09-06 11:47:00,
2013-09-06 07:52:00,47.4,45.8,30.26,NE,37,0.0,1.0,94,0.00,,---,0.00,VWS V13.01,2013-09-06 11:52:00,
2013-09-06 07:57:00,47.9,45.7,30.26,NE,37,1.0,2.0,92,0.00,,---,0.00,VWS V13.01,2013-09-06 11:57:00,
2013-09-06 08:02:00,48.2,45.7,30.26,NNE,30,2.0,3.0,91,0.00,,---,0.00,VWS V13.01,2013-09-06 12:02:00,
2013-09-06 08:07:00,48.5,46.0,30.26,NNE,26,0.0,4.0,91,0.00,,---,0.00,VWS V13.01,2013-09-06 12:07:00,
2013-09-06 08:12:00,49.0,46.2,30.26,NNE,25,0.0,3.0,90,0.00,,---,0.00,VWS V13.01,2013-09-06 12:12:00,
2013-09-06 08:17:00,49.4,46.3,30.26,NNE,30,2.0,4.0,89,0.00,,---,0.00,VWS V13.01,2013-09-06 12:17:00,
2013-09-06 08:22:00,49.8,46.4,30.26,NNE,20,3.0,5.0,88,0.00,,---,0.00,VWS V13.01,2013-09-06 12:22:00,
2013-09-06 08:27:00,50.1,46.7,30.26,NE,36,1.0,5.0,88,0.00,,---,0.00,VWS V13.01,2013-09-06 12:27:00,
2013-09-06 08:32:00,50.6,46.6,30.26,NE,44,2.0,5.0,86,0.00,,---,0.00,VWS V13.01,2013-09-06 12:32:00,
2013-09-06 08:37:00,51.0,46.7,30.26,NE,38,1.0,6.0,85,0.00,,---,0.00,VWS V13.01,2013-09-06 12:37:00,
2013-09-06 08:42:00,51.2,46.8,30.26,NNE,13,1.0,4.0,85,0.00,,---,0.00,VWS V13.01,2013-09-06 12:42:00,
2013-09-06 08:47:00,51.5,47.5,30.26,North,355,4.0,4.0,86,0.00,,---,0.00,VWS V13.01,2013-09-06 12:47:00,
2013-09-06 08:52:00,51.9,47.5,30.26,NNE,28,0.0,4.0,85,0.00,,---,0.00,VWS V13.01,2013-09-06 12:52:00,
2013-09-06 08:57:00,52.5,47.8,30.26,North,11,0.0,4.0,84,0.00,,---,0.00,VWS V13.01,2013-09-06 12:57:00,
2013-09-06 09:02:00,53.2,48.2,30.26,North,5,1.0,4.0,83,0.00,,---,0.00,VWS V13.01,2013-09-06 13:02:00,
2013-09-06 09:07:00,53.8,49.1,30.26,ENE,65,3.0,4.0,84,0.00,,---,0.00,VWS V13.01,2013-09-06 13:07:00,
2013-09-06 09:12:00,54.5,49.1,30.26,NE,51,1.0,3.0,82,0.00,,---,0.00,VWS V13.01,2013-09-06 13:12:00,
2013-09-06 09:17:00,55.1,49.0,30.26,NE,50,2.0,4.0,80,0.00,,---,0.00,VWS V13.01,2013-09-06 13:17:00,
2013-09-06 09:22:00,55.6,49.5,30.26,NE,49,2.0,4.0,80,0.00,,---,0.00,VWS V13.01,2013-09-06 13:22:00,
2013-09-06 09:27:00,56.2,50.1,30.26,NE,51,2.0,4.0,80,0.00,,---,0.00,VWS V13.01,2013-09-06 13:27:00,
2013-09-06 09:32:00,57.0,50.6,30.26,ENE,65,2.0,3.0,79,0.00,,---,0.00,VWS V13.01,2013-09-06 13:32:00,
2013-09-06 09:37:00,57.7,50.2,30.26,ENE,61,2.0,3.0,76,0.00,,---,0.00,VWS V13.01,2013-09-06 13:37:00,
2013-09-06 09:42:00,58.4,50.9,30.26,NE,38,1.0,3.0,76,0.00,,---,0.00,VWS V13.01,2013-09-06 13:42:00,
2013-09-06 09:47:00,59.1,50.1,30.26,NNE,26,0.0,4.0,72,0.00,,---,0.00,VWS V13.01,2013-09-06 13:47:00,
2013-09-06 09:52:00,59.5,50.8,30.26,North,349,0.0,3.0,73,0.00,,---,0.00,VWS V13.01,2013-09-06 13:52:00,
2013-09-06 09:57:00,59.9,50.5,30.26,ENE,61,1.0,3.0,71,0.00,,---,0.00,VWS V13.01,2013-09-06 13:57:00,
2013-09-06 10:02:00,60.6,51.5,30.26,NE,42,1.0,3.0,72,0.00,,---,0.00,VWS V13.01,2013-09-06 14:02:00,
2013-09-06 10:07:00,61.2,50.2,30.26,ENE,74,2.0,3.0,67,0.00,,---,0.00,VWS V13.01,2013-09-06 14:07:00,
2013-09-06 10:12:00,61.7,50.6,30.26,NE,46,0.0,4.0,67,0.00,,---,0.00,VWS V13.01,2013-09-06 14:12:00,
2013-09-06 10:17:00,62.2,50.3,30.26,ENE,69,1.0,4.0,65,0.00,,---,0.00,VWS V13.01,2013-09-06 14:17:00,
2013-09-06 10:22:00,62.5,50.2,30.26,North,5,1.0,3.0,64,0.00,,---,0.00,VWS V13.01,2013-09-06 14:22:00,
2013-09-06 10:27:00,63.0,51.1,30.26,NE,40,0.0,4.0,65,0.00,,---,0.00,VWS V13.01,2013-09-06 14:27:00,
2013-09-06 10:32:00,63.4,51.9,30.26,North,5,3.0,5.0,66,0.00,,---,0.00,VWS V13.01,2013-09-06 14:32:00,
2013-09-06 10:37:00,63.9,51.5,30.26,ENE,74,2.0,5.0,64,0.00,,---,0.00,VWS V13.01,2013-09-06 14:37:00,
2013-09-06 10:42:00,64.2,52.2,30.26,NE,46,2.0,5.0,65,0.00,,---,0.00,VWS V13.01,2013-09-06 14:42:00,
2013-09-06 10:47:00,64.8,51.0,30.26,NNE,22,4.0,5.0,61,0.00,,---,0.00,VWS V13.01,2013-09-06 14:47:00,
2013-09-06 10:52:00,64.9,51.2,30.26,North,360,5.0,6.0,61,0.00,,---,0.00,VWS V13.01,2013-09-06 14:52:00,
2013-09-06 10:57:00,64.9,49.3,30.26,NE,43,0.0,6.0,57,0.00,,---,0.00,VWS V13.01,2013-09-06 14:57:00,
2013-09-06 11:02:00,64.9,50.2,30.26,North,5,0.0,5.0,59,0.00,,---,0.00,VWS V13.01,2013-09-06 15:02:00,
2013-09-06 11:07:00,65.3,49.7,30.26,North,360,3.0,7.0,57,0.00,,---,0.00,VWS V13.01,2013-09-06 15:07:00,
2013-09-06 11:12:00,65.5,49.9,30.26,ENE,57,3.0,5.0,57,0.00,,---,0.00,VWS V13.01,2013-09-06 15:12:00,
2013-09-06 11:17:00,65.8,49.7,30.26,NNW,329,0.0,5.0,56,0.00,,---,0.00,VWS V13.01,2013-09-06 15:17:00,
2013-09-06 11:22:00,66.1,49.5,30.26,NNW,348,0.0,7.0,55,0.00,,---,0.00,VWS V13.01,2013-09-06 15:22:00,
2013-09-06 11:27:00,66.2,50.1,30.25,NNE,28,0.0,7.0,56,0.00,,---,0.00,VWS V13.01,2013-09-06 15:27:00,
2013-09-06 11:32:00,66.1,50.0,30.25,NNE,25,1.0,6.0,56,0.00,,---,0.00,VWS V13.01,2013-09-06 15:32:00,
2013-09-06 11:37:00,66.5,50.8,30.25,NE,35,3.0,6.0,57,0.00,,---,0.00,VWS V13.01,2013-09-06 15:37:00,
2013-09-06 11:42:00,66.7,49.5,30.25,NE,54,2.0,8.0,54,0.00,,---,0.00,VWS V13.01,2013-09-06 15:42:00,
2013-09-06 11:47:00,67.0,50.3,30.25,NNE,28,1.0,8.0,55,0.00,,---,0.00,VWS V13.01,2013-09-06 15:47:00,
2013-09-06 11:52:00,67.4,50.7,30.25,NNE,32,5.0,5.0,55,0.00,,---,0.00,VWS V13.01,2013-09-06 15:52:00,
2013-09-06 11:57:00,67.4,50.2,30.24,NNW,348,3.0,6.0,54,0.00,,---,0.00,VWS V13.01,2013-09-06 15:57:00,
2013-09-06 12:02:00,67.3,50.1,30.24,ENE,58,1.0,5.0,54,0.00,,---,0.00,VWS V13.01,2013-09-06 16:02:00,
2013-09-06 12:07:00,67.4,50.7,30.24,WNW,296,2.0,5.0,55,0.00,,---,0.00,VWS V13.01,2013-09-06 16:07:00,
2013-09-06 12:12:00,67.6,51.8,30.24,NNW,346,1.0,6.0,57,0.00,,---,0.00,VWS V13.01,2013-09-06 16:12:00,
2013-09-06 12:17:00,67.8,52.5,30.24,NW,319,1.0,6.0,58,0.00,,---,0.00,VWS V13.01,2013-09-06 16:17:00,
2013-09-06 12:22:00,68.1,51.8,30.24,NE,54,5.0,6.0,56,0.00,,---,0.00,VWS V13.01,2013-09-06 16:22:00,
2013-09-06 12:27:00,68.1,49.3,30.24,North,355,0.0,6.0,51,0.00,,---,0.00,VWS V13.01,2013-09-06 16:27:00,
2013-09-06 12:32:00,67.9,50.7,30.24,North,5,5.0,9.0,54,0.00,,---,0.00,VWS V13.01,2013-09-06 16:32:00,
2013-09-06 12:37:00,67.9,52.6,30.23,SW,221,1.0,9.0,58,0.00,,---,0.00,VWS V13.01,2013-09-06 16:37:00,
2013-09-06 12:42:00,68.1,50.3,30.23,North,355,1.0,3.0,53,0.00,,---,0.00,VWS V13.01,2013-09-06 16:42:00,
2013-09-06 12:47:00,68.4,49.1,30.23,NNE,20,5.0,7.0,50,0.00,,---,0.00,VWS V13.01,2013-09-06 16:47:00,
2013-09-06 12:52:00,68.4,48.5,30.23,NNW,338,4.0,6.0,49,0.00,,---,0.00,VWS V13.01,2013-09-06 16:52:00,
2013-09-06 12:57:00,68.6,49.2,30.23,NE,48,3.0,7.0,50,0.00,,---,0.00,VWS V13.01,2013-09-06 16:57:00,
2013-09-06 13:02:00,68.9,48.4,30.23,NNE,17,1.0,6.0,48,0.00,,---,0.00,VWS V13.01,2013-09-06 17:02:00,
2013-09-06 13:07:00,69.1,49.2,30.23,NNW,332,3.0,6.0,49,0.00,,---,0.00,VWS V13.01,2013-09-06 17:07:00,
2013-09-06 13:12:00,69.3,45.9,30.23,NE,43,4.0,6.0,43,0.00,,---,0.00,VWS V13.01,2013-09-06 17:12:00,
2013-09-06 13:17:00,69.6,46.8,30.22,NNE,29,1.0,6.0,44,0.00,,---,0.00,VWS V13.01,2013-09-06 17:17:00,
2013-09-06 13:22:00,69.8,46.3,30.23,NNE,16,1.0,8.0,43,0.00,,---,0.00,VWS V13.01,2013-09-06 17:22:00,
2013-09-06 13:27:00,69.9,44.5,30.22,NNW,346,0.0,8.0,40,0.00,,---,0.00,VWS V13.01,2013-09-06 17:27:00,
2013-09-06 13:32:00,69.9,47.0,30.22,NNW,343,0.0,5.0,44,0.00,,---,0.00,VWS V13.01,2013-09-06 17:32:00,
2013-09-06 13:37:00,69.9,43.8,30.22,NNE,30,2.0,7.0,39,0.00,,---,0.00,VWS V13.01,2013-09-06 17:37:00,
2013-09-06 13:42:00,70.1,46.0,30.22,NW,323,1.0,3.0,42,0.00,,---,0.00,VWS V13.01,2013-09-06 17:42:00,
2013-09-06 13:47:00,70.5,47.0,30.21,North,355,3.0,5.0,43,0.00,,---,0.00,VWS V13.01,2013-09-06 17:47:00,
2013-09-06 13:52:00,70.7,44.5,30.21,NNE,16,2.0,4.0,39,0.00,,---,0.00,VWS V13.01,2013-09-06 17:52:00,
2013-09-06 13:57:00,70.9,43.4,30.21,North,351,3.0,5.0,37,0.00,,---,0.00,VWS V13.01,2013-09-06 17:57:00,
2013-09-06 14:02:00,71.0,44.8,30.21,North,5,0.0,3.0,39,0.00,,---,0.00,VWS V13.01,2013-09-06 18:02:00,
2013-09-06 14:07:00,71.1,42.1,30.20,NW,313,1.0,5.0,35,0.00,,---,0.00,VWS V13.01,2013-09-06 18:07:00,
2013-09-06 14:12:00,71.5,45.9,30.20,NE,48,3.0,3.0,40,0.00,,---,0.00,VWS V13.01,2013-09-06 18:12:00,
2013-09-06 14:17:00,71.7,43.3,30.20,NNE,15,5.0,8.0,36,0.00,,---,0.00,VWS V13.01,2013-09-06 18:17:00,
2013-09-06 14:22:00,71.3,43.7,30.20,North,360,1.0,4.0,37,0.00,,---,0.00,VWS V13.01,2013-09-06 18:22:00,
2013-09-06 14:27:00,71.1,42.1,30.20,NE,47,1.0,7.0,35,0.00,,---,0.00,VWS V13.01,2013-09-06 18:27:00,
2013-09-06 14:32:00,71.1,42.8,30.19,East,90,0.0,5.0,36,0.00,,---,0.00,VWS V13.01,2013-09-06 18:32:00,
2013-09-06 14:37:00,71.5,44.6,30.19,WSW,239,2.0,5.0,38,0.00,,---,0.00,VWS V13.01,2013-09-06 18:37:00,
2013-09-06 14:42:00,72.2,46.6,30.19,SW,226,1.0,3.0,40,0.00,,---,0.00,VWS V13.01,2013-09-06 18:42:00,
2013-09-06 14:47:00,72.6,48.2,30.19,NNW,335,2.0,4.0,42,0.00,,---,0.00,VWS V13.01,2013-09-06 18:47:00,
2013-09-06 14:52:00,72.9,49.1,30.18,North,11,1.0,3.0,43,0.00,,---,0.00,VWS V13.01,2013-09-06 18:52:00,
2013-09-06 14:57:00,73.0,48.6,30.18,NNE,30,4.0,7.0,42,0.00,,---,0.00,VWS V13.01,2013-09-06 18:57:00,
2013-09-06 15:02:00,73.1,49.3,30.18,ENE,59,2.0,5.0,43,0.00,,---,0.00,VWS V13.01,2013-09-06 19:02:00,
2013-09-06 15:07:00,73.4,48.9,30.18,NNE,14,4.0,7.0,42,0.00,,---,0.00,VWS V13.01,2013-09-06 19:07:00,
2013-09-06 15:12:00,73.4,50.2,30.18,NNW,348,2.0,5.0,44,0.00,,---,0.00,VWS V13.01,2013-09-06 19:12:00,
2013-09-06 15:17:00,73.3,48.8,30.18,NNE,23,1.0,6.0,42,0.00,,---,0.00,VWS V13.01,2013-09-06 19:17:00,
2013-09-06 15:22:00,73.2,48.8,30.17,ESE,105,1.0,4.0,42,0.00,,---,0.00,VWS V13.01,2013-09-06 19:22:00,
2013-09-06 15:27:00,73.1,45.3,30.17,ENE,71,1.0,5.0,37,0.00,,---,0.00,VWS V13.01,2013-09-06 19:27:00,
2013-09-06 15:32:00,73.3,48.2,30.17,North,355,2.0,5.0,41,0.00,,---,0.00,VWS V13.01,2013-09-06 19:32:00,
2013-09-06 15:37:00,73.1,46.7,30.17,North,350,1.0,7.0,39,0.00,,---,0.00,VWS V13.01,2013-09-06 19:37:00,
2013-09-06 15:42:00,73.3,48.8,30.17,NNW,346,2.0,3.0,42,0.00,,---,0.00,VWS V13.01,2013-09-06 19:42:00,
2013-09-06 15:47:00,73.5,47.0,30.17,NNW,337,3.0,6.0,39,0.00,,---,0.00,VWS V13.01,2013-09-06 19:47:00,
2013-09-06 15:52:00,73.5,45.7,30.16,NNW,346,3.0,5.0,37,0.00,,---,0.00,VWS V13.01,2013-09-06 19:52:00,
2013-09-06 15:57:00,73.5,48.4,30.16,North,11,3.0,8.0,41,0.00,,---,0.00,VWS V13.01,2013-09-06 19:57:00,
2013-09-06 16:02:00,73.5,48.4,30.16,North,355,5.0,7.0,41,0.00,,---,0.00,VWS V13.01,2013-09-06 20:02:00,
2013-09-06 16:07:00,73.5,49.0,30.16,NNE,23,4.0,7.0,42,0.00,,---,0.00,VWS V13.01,2013-09-06 20:07:00,
2013-09-06 16:12:00,73.7,47.9,30.15,ENE,59,2.0,6.0,40,0.00,,---,0.00,VWS V13.01,2013-09-06 20:12:00,
2013-09-06 16:17:00,74.0,46.8,30.15,SE,138,0.0,6.0,38,0.00,,---,0.00,VWS V13.01,2013-09-06 20:17:00,
2013-09-06 16:22:00,74.2,48.3,30.15,North,360,1.0,5.0,40,0.00,,---,0.00,VWS V13.01,2013-09-06 20:22:00,
2013-09-06 16:27:00,74.4,48.5,30.15,ENE,67,1.0,5.0,40,0.00,,---,0.00,VWS V13.01,2013-09-06 20:27:00,
2013-09-06 16:32:00,74.2,48.3,30.15,NNE,28,3.0,5.0,40,0.00,,---,0.00,VWS V13.01,2013-09-06 20:32:00,
2013-09-06 16:37:00,74.1,48.9,30.15,NNE,24,0.0,6.0,41,0.00,,---,0.00,VWS V13.01,2013-09-06 20:37:00,
2013-09-06 16:42:00,74.6,48.0,30.15,North,360,0.0,5.0,39,0.00,,---,0.00,VWS V13.01,2013-09-06 20:42:00,
2013-09-06 16:47:00,74.7,49.5,30.15,ENE,58,3.0,5.0,41,0.00,,---,0.00,VWS V13.01,2013-09-06 20:47:00,
2013-09-06 16:52:00,74.8,48.2,30.15,East,79,3.0,3.0,39,0.00,,---,0.00,VWS V13.01,2013-09-06 20:52:00,
2013-09-06 16:57:00,74.6,48.0,30.15,ENE,69,2.0,5.0,39,0.00,,---,0.00,VWS V13.01,2013-09-06 20:57:00,
2013-09-06 17:02:00,74.4,47.2,30.14,NNE,27,2.0,6.0,38,0.00,,---,0.00,VWS V13.01,2013-09-06 21:02:00,
2013-09-06 17:07:00,74.3,49.1,30.14,North,351,3.0,6.0,41,0.00,,---,0.00,VWS V13.01,2013-09-06 21:07:00,
2013-09-06 17:12:00,74.2,48.3,30.14,NNE,33,5.0,5.0,40,0.00,,---,0.00,VWS V13.01,2013-09-06 21:12:00,
2013-09-06 17:17:00,74.2,48.3,30.14,North,351,3.0,5.0,40,0.00,,---,0.00,VWS V13.01,2013-09-06 21:17:00,
2013-09-06 17:22:00,73.9,46.7,30.14,NE,38,1.0,7.0,38,0.00,,---,0.00,VWS V13.01,2013-09-06 21:22:00,
2013-09-06 17:28:00,73.7,46.5,30.14,NE,44,3.0,7.0,38,0.00,,---,0.00,VWS V13.01,2013-09-06 21:28:00,
2013-09-06 17:33:00,73.6,48.5,30.14,NNE,17,4.0,6.0,41,0.00,,---,0.00,VWS V13.01,2013-09-06 21:33:00,
2013-09-06 17:37:00,73.5,47.7,30.14,North,360,2.0,6.0,40,0.00,,---,0.00,VWS V13.01,2013-09-06 21:37:00,
2013-09-06 17:42:00,73.4,47.0,30.14,NE,38,1.0,6.0,39,0.00,,---,0.00,VWS V13.01,2013-09-06 21:42:00,
2013-09-06 17:47:00,73.2,47.5,30.14,NNE,13,2.0,6.0,40,0.00,,---,0.00,VWS V13.01,2013-09-06 21:47:00,
2013-09-06 17:53:00,73.3,46.9,30.14,ENE,74,2.0,5.0,39,0.00,,---,0.00,VWS V13.01,2013-09-06 21:53:00,
2013-09-06 17:58:00,73.1,47.4,30.14,NNE,15,4.0,5.0,40,0.00,,---,0.00,VWS V13.01,2013-09-06 21:58:00,
2013-09-06 18:03:00,73.0,47.3,30.14,NNE,24,2.0,5.0,40,0.00,,---,0.00,VWS V13.01,2013-09-06 22:03:00,
2013-09-06 18:08:00,72.8,47.1,30.14,NE,48,3.0,6.0,40,0.00,,---,0.00,VWS V13.01,2013-09-06 22:08:00,
2013-09-06 18:13:00,72.6,49.5,30.14,NNE,32,0.0,5.0,44,0.00,,---,0.00,VWS V13.01,2013-09-06 22:13:00,
2013-09-06 18:18:00,72.4,47.4,30.14,North,11,1.0,5.0,41,0.00,,---,0.00,VWS V13.01,2013-09-06 22:18:00,
2013-09-06 18:23:00,72.1,47.1,30.14,NE,41,4.0,5.0,41,0.00,,---,0.00,VWS V13.01,2013-09-06 22:23:00,
2013-09-06 18:28:00,71.8,48.1,30.14,NNE,18,1.0,5.0,43,0.00,,---,0.00,VWS V13.01,2013-09-06 22:28:00,
2013-09-06 18:33:00,71.4,47.8,30.14,NNE,30,1.0,3.0,43,0.00,,---,0.00,VWS V13.01,2013-09-06 22:33:00,
2013-09-06 18:38:00,71.1,48.1,30.14,North,355,2.0,4.0,44,0.00,,---,0.00,VWS V13.01,2013-09-06 22:38:00,
2013-09-06 18:43:00,70.7,48.3,30.14,North,9,2.0,5.0,45,0.00,,---,0.00,VWS V13.01,2013-09-06 22:43:00,
2013-09-06 18:48:00,70.3,48.0,30.14,NNE,33,2.0,5.0,45,0.00,,---,0.00,VWS V13.01,2013-09-06 22:48:00,
2013-09-06 18:53:00,69.8,47.5,30.14,NNE,17,1.0,4.0,45,0.00,,---,0.00,VWS V13.01,2013-09-06 22:53:00,
2013-09-06 18:58:00,69.4,48.3,30.14,North,5,0.0,4.0,47,0.00,,---,0.00,VWS V13.01,2013-09-06 22:58:00,
2013-09-06 19:03:00,68.9,48.4,30.14,NNE,15,2.0,3.0,48,0.00,,---,0.00,VWS V13.01,2013-09-06 23:03:00,
2013-09-06 19:08:00,68.5,48.1,30.14,NNE,15,2.0,3.0,48,0.00,,---,0.00,VWS V13.01,2013-09-06 23:08:00,
2013-09-06 19:13:00,68.2,47.8,30.14,North,5,1.0,3.0,48,0.00,,---,0.00,VWS V13.01,2013-09-06 23:13:00,
2013-09-06 19:18:00,67.9,48.1,30.14,North,5,1.0,3.0,49,0.00,,---,0.00,VWS V13.01,2013-09-06 23:18:00,
2013-09-06 19:23:00,67.6,48.8,30.14,North,5,0.0,1.0,51,0.00,,---,0.00,VWS V13.01,2013-09-06 23:23:00,
2013-09-06 19:28:00,67.2,50.0,30.14,North,5,0.0,1.0,54,0.00,,---,0.00,VWS V13.01,2013-09-06 23:28:00,
2013-09-06 19:33:00,66.6,50.0,30.14,North,5,0.0,1.0,55,0.00,,---,0.00,VWS V13.01,2013-09-06 23:33:00,
2013-09-06 19:38:00,66.0,49.4,30.14,North,5,0.0,1.0,55,0.00,,---,0.00,VWS V13.01,2013-09-06 23:38:00,
2013-09-06 19:43:00,65.5,48.9,30.14,North,5,1.0,1.0,55,0.00,,---,0.00,VWS V13.01,2013-09-06 23:43:00,
2013-09-06 19:48:00,65.0,48.9,30.14,North,5,0.0,1.0,56,0.00,,---,0.00,VWS V13.01,2013-09-06 23:48:00,
2013-09-06 19:53:00,64.5,50.3,30.14,North,5,0.0,0.0,60,0.00,,---,0.00,VWS V13.01,2013-09-06 23:53:00,
2013-09-06 19:58:00,64.1,50.0,30.15,North,5,0.0,1.0,60,0.00,,---,0.00,VWS V13.01,2013-09-06 23:58:00,
2013-09-06 20:03:00,63.4,49.7,30.14,North,5,0.0,1.0,61,0.00,,---,0.00,VWS V13.01,2013-09-07 00:03:00,
2013-09-06 20:08:00,62.9,49.3,30.13,North,5,0.0,1.0,61,0.00,,---,0.00,VWS V13.01,2013-09-07 00:08:00,
2013-09-06 20:13:00,62.5,49.8,30.14,North,5,0.0,0.0,63,0.00,,---,0.00,VWS V13.01,2013-09-07 00:13:00,
2013-09-06 20:18:00,62.1,50.2,30.13,North,5,0.0,1.0,65,0.00,,---,0.00,VWS V13.01,2013-09-07 00:18:00,
2013-09-06 20:23:00,61.6,50.5,30.13,North,5,0.0,0.0,67,0.00,,---,0.00,VWS V13.01,2013-09-07 00:23:00,
2013-09-06 20:28:00,61.2,50.6,30.14,North,5,0.0,0.0,68,0.00,,---,0.00,VWS V13.01,2013-09-07 00:28:00,
2013-09-06 20:33:00,60.8,51.0,30.14,North,5,0.0,0.0,70,0.00,,---,0.00,VWS V13.01,2013-09-07 00:33:00,
2013-09-06 20:38:00,60.3,50.9,30.14,North,5,0.0,1.0,71,0.00,,---,0.00,VWS V13.01,2013-09-07 00:38:00,
2013-09-06 20:43:00,59.8,50.8,30.14,North,5,0.0,0.0,72,0.00,,---,0.00,VWS V13.01,2013-09-07 00:43:00,
2013-09-06 20:48:00,59.3,50.7,30.14,North,5,0.0,1.0,73,0.00,,---,0.00,VWS V13.01,2013-09-07 00:48:00,
2013-09-06 20:53:00,58.9,50.6,30.14,North,5,0.0,1.0,74,0.00,,---,0.00,VWS V13.01,2013-09-07 00:53:00,
2013-09-06 20:58:00,58.6,50.7,30.14,North,5,0.0,1.0,75,0.00,,---,0.00,VWS V13.01,2013-09-07 00:58:00,
2013-09-06 21:03:00,58.3,50.8,30.14,North,5,0.0,0.0,76,0.00,,---,0.00,VWS V13.01,2013-09-07 01:03:00,
2013-09-06 21:08:00,58.0,50.8,30.14,North,5,0.0,0.0,77,0.00,,---,0.00,VWS V13.01,2013-09-07 01:08:00,
2013-09-06 21:13:00,57.7,50.5,30.14,North,5,0.0,0.0,77,0.00,,---,0.00,VWS V13.01,2013-09-07 01:13:00,
2013-09-06 21:18:00,57.5,50.4,30.14,North,5,0.0,0.0,77,0.00,,---,0.00,VWS V13.01,2013-09-07 01:18:00,
2013-09-06 21:23:00,57.2,50.4,30.14,North,5,0.0,1.0,78,0.00,,---,0.00,VWS V13.01,2013-09-07 01:23:00,
2013-09-06 21:28:00,56.9,50.5,30.14,North,5,0.0,1.0,79,0.00,,---,0.00,VWS V13.01,2013-09-07 01:28:00,
2013-09-06 21:33:00,56.6,50.5,30.14,North,5,0.0,0.0,80,0.00,,---,0.00,VWS V13.01,2013-09-07 01:33:00,
2013-09-06 21:38:00,56.4,50.3,30.14,North,5,0.0,0.0,80,0.00,,---,0.00,VWS V13.01,2013-09-07 01:38:00,
2013-09-06 21:43:00,56.2,50.5,30.14,North,5,0.0,0.0,81,0.00,,---,0.00,VWS V13.01,2013-09-07 01:43:00,
2013-09-06 21:48:00,56.0,50.6,30.14,North,5,0.0,0.0,82,0.00,,---,0.00,VWS V13.01,2013-09-07 01:48:00,
2013-09-06 21:53:00,55.7,50.6,30.14,North,5,0.0,0.0,83,0.00,,---,0.00,VWS V13.01,2013-09-07 01:53:00,
2013-09-06 21:58:00,55.5,50.4,30.14,North,5,0.0,0.0,83,0.00,,---,0.00,VWS V13.01,2013-09-07 01:58:00,
2013-09-06 22:03:00,55.3,50.6,30.14,North,5,0.0,0.0,84,0.00,,---,0.00,VWS V13.01,2013-09-07 02:03:00,
2013-09-06 22:08:00,55.1,50.4,30.14,North,5,0.0,0.0,84,0.00,,---,0.00,VWS V13.01,2013-09-07 02:08:00,
2013-09-06 22:13:00,54.9,50.2,30.14,North,5,0.0,0.0,84,0.00,,---,0.00,VWS V13.01,2013-09-07 02:13:00,
2013-09-06 22:18:00,54.6,50.2,30.13,North,5,0.0,0.0,85,0.00,,---,0.00,VWS V13.01,2013-09-07 02:18:00,
2013-09-06 22:23:00,54.5,50.4,30.14,North,5,0.0,0.0,86,0.00,,---,0.00,VWS V13.01,2013-09-07 02:23:00,
2013-09-06 22:28:00,54.4,50.6,30.14,North,5,0.0,0.0,87,0.00,,---,0.00,VWS V13.01,2013-09-07 02:28:00,
2013-09-06 22:33:00,54.2,50.4,30.14,North,5,0.0,0.0,87,0.00,,---,0.00,VWS V13.01,2013-09-07 02:33:00,
2013-09-06 22:38:00,54.1,50.3,30.14,North,5,0.0,0.0,87,0.00,,---,0.00,VWS V13.01,2013-09-07 02:38:00,
2013-09-06 22:43:00,54.0,50.5,30.14,North,5,0.0,0.0,88,0.00,,---,0.00,VWS V13.01,2013-09-07 02:43:00,
2013-09-06 22:48:00,53.9,50.4,30.14,North,5,0.0,0.0,88,0.00,,---,0.00,VWS V13.01,2013-09-07 02:48:00,
2013-09-06 22:53:00,53.7,50.2,30.14,North,5,0.0,0.0,88,0.00,,---,0.00,VWS V13.01,2013-09-07 02:53:00,
2013-09-06 22:58:00,53.6,50.1,30.14,North,5,0.0,0.0,88,0.00,,---,0.00,VWS V13.01,2013-09-07 02:58:00,
2013-09-06 23:03:00,53.5,50.3,30.13,North,5,0.0,1.0,89,0.00,,---,0.00,VWS V13.01,2013-09-07 03:03:00,
2013-09-06 23:08:00,53.4,50.2,30.14,North,5,0.0,1.0,89,0.00,,---,0.00,VWS V13.01,2013-09-07 03:08:00,
2013-09-06 23:13:00,53.3,50.2,30.14,North,5,0.0,0.0,89,0.00,,---,0.00,VWS V13.01,2013-09-07 03:13:00,
2013-09-06 23:18:00,53.2,50.0,30.14,North,5,0.0,0.0,89,0.00,,---,0.00,VWS V13.01,2013-09-07 03:18:00,
2013-09-06 23:23:00,53.1,50.0,30.14,North,5,0.0,0.0,89,0.00,,---,0.00,VWS V13.01,2013-09-07 03:23:00,
2013-09-06 23:28:00,52.9,49.8,30.14,North,5,0.0,0.0,89,0.00,,---,0.00,VWS V13.01,2013-09-07 03:28:00,
2013-09-06 23:33:00,52.8,49.7,30.14,North,5,0.0,0.0,89,0.00,,---,0.00,VWS V13.01,2013-09-07 03:33:00,
2013-09-06 23:38:00,52.7,49.8,30.13,North,5,0.0,0.0,90,0.00,,---,0.00,VWS V13.01,2013-09-07 03:38:00,
2013-09-06 23:43:00,52.5,49.4,30.13,North,5,0.0,0.0,89,0.00,,---,0.00,VWS V13.01,2013-09-07 03:43:00,
2013-09-06 23:48:00,52.3,49.5,30.14,North,5,0.0,1.0,90,0.00,,---,0.00,VWS V13.01,2013-09-07 03:48:00,
2013-09-06 23:53:00,52.2,49.4,30.13,North,5,0.0,0.0,90,0.00,,---,0.00,VWS V13.01,2013-09-07 03:53:00,
2013-09-06 23:58:00,52.1,49.3,30.13,North,5,0.0,0.0,90,0.00,,---,0.00,VWS V13.01,2013-09-07 03:58:00,